Weather History for KMSP - March, 2013

Change the Weather History Date:

Saturday, March 9, 2013

  Actual Average Record
Temperature  
Mean Temperature 36 °F 30 °F  
Max Temperature 38 °F 38 °F 61 °F (1879)
Min Temperature 33 °F 22 °F -10 °F (2003)
Degree Days  
Heating Degree Days 29 35  
Month to date heating degree days 353 334  
Since 1 July heating degree days 5887 6124  
Cooling Degree Days 0 0  
Month to date cooling degree days 0 0  
Year to date cooling degree days 0 0  
Moisture  
Dew Point 35 °F    
Average Humidity 88    
Maximum Humidity 100    
Minimum Humidity 75    
Precipitation  
Precipitation 0.61 in 0.05 in 0.84 in (1918)
Month to date precipitation 1.36 0.46  
Year to date precipitation 3.55 2.13  
Snow  
Snow 0.00 in 0.40 in 10.90 in (1918)
Month to date snowfall 9.3 3.7  
Since 1 July snowfall 44.8 45.4  
Snow Depth 8.00 in    
Sea Level Pressure  
Sea Level Pressure 29.82 in    
Wind  
Wind Speed 7 mph (SE)    
Max Wind Speed 17 mph    
Max Gust Speed 21 mph    
Visibility 2 miles    
Events Fog , Rain    
T = Trace of Precipitation, MM = Missing Value Source: NWS Daily Summary

Daily Weather History Graph

Daily Weather History Graph

Search for Another Location

Airport or City:

Trip Planner

Search our weather history database for the weather conditions in past years. The results will help you decide how hot, cold, wet, or windy it might be!

Date:

Astronomy

Mar. 09, 2013 Rise Set
Actual Time 6:35 AM CST 6:11 PM CST
Civil Twilight 6:06 AM CST 6:40 PM CST
Nautical Twilight 5:32 AM CST 7:14 PM CST
Astronomical Twilight 4:58 AM CST 7:49 PM CST
Moon 5:04 AM CST (3/9) 4:10 PM CST (3/9)
Length of Visible Light 12h 34m
Length of Day
11h 35m
Waning Crescent, 5% of the Moon is Illuminated
Mar 9
Waning Crescent
Mar 11
New
Mar 19
First Quarter
Mar 27
Full
Apr 2
Last Quarter

Hourly Weather History & Observations

Time (CST) Temp. Windchill Dew Point Humidity Pressure Visibility Wind Dir Wind Speed Gust Speed Precip Events Conditions
12:53 AM 35.1 °F 29.3 °F 28.0 °F 76% 30.11 in 7.0 mi SE 6.9 mph - N/A   Overcast
1:53 AM 34.0 °F 27.2 °F 30.0 °F 85% 30.09 in 4.0 mi ESE 8.1 mph - 0.04 in Rain Light Rain
2:29 AM 33.8 °F 26.4 °F 30.2 °F 87% 30.03 in 3.0 mi SE 9.2 mph - 0.07 in Rain Rain
2:53 AM 33.1 °F 24.9 °F 32.0 °F 96% 30.04 in 3.0 mi ESE 10.4 mph - 0.12 in Rain Light Rain
3:00 AM 33.8 °F 25.8 °F 32.0 °F 93% 30.01 in 3.0 mi ESE 10.4 mph - 0.01 in Rain Light Rain
3:15 AM 33.8 °F 25.3 °F 32.0 °F 93% 30.00 in 3.0 mi ESE 11.5 mph - 0.04 in Rain Light Rain
3:53 AM 34.0 °F 25.5 °F 33.1 °F 96% 30.00 in 3.0 mi ESE 11.5 mph - 0.11 in Rain Rain
4:53 AM 35.1 °F 27.4 °F 33.1 °F 92% 29.97 in 3.0 mi SE 10.4 mph - 0.09 in Rain Light Rain
5:53 AM 35.1 °F 26.9 °F 34.0 °F 96% 29.96 in 4.0 mi SE 11.5 mph - 0.02 in Rain Light Rain
6:53 AM 35.1 °F 26.9 °F 34.0 °F 96% 29.94 in 4.0 mi SE 11.5 mph - 0.02 in Rain Light Rain
7:53 AM 36.0 °F 29.0 °F 34.0 °F 93% 29.91 in 3.0 mi SE 9.2 mph - 0.00 in   Overcast
8:53 AM 36.0 °F 27.5 °F 34.0 °F 93% 29.88 in 3.0 mi SE 12.7 mph - N/A   Overcast
9:02 AM 35.6 °F 27.5 °F 33.8 °F 93% 29.85 in 2.5 mi SE 11.5 mph - N/A   Overcast
9:35 AM 35.6 °F 28.0 °F 33.8 °F 93% 29.84 in 3.0 mi SE 10.4 mph - N/A   Overcast
9:53 AM 36.0 °F 28.5 °F 35.1 °F 97% 29.87 in 2.5 mi SE 10.4 mph - N/A   Overcast
10:05 AM 35.6 °F 27.5 °F 35.6 °F 100% 29.84 in 3.0 mi SE 11.5 mph - N/A   Overcast
10:17 AM 35.6 °F 28.0 °F 35.6 °F 100% 29.84 in 2.0 mi SE 10.4 mph - N/A   Overcast
10:29 AM 35.6 °F 28.0 °F 35.6 °F 100% 29.84 in 1.8 mi SSE 10.4 mph - N/A   Overcast
10:50 AM 35.6 °F 28.0 °F 35.6 °F 100% 29.83 in 1.2 mi SE 10.4 mph - 0.00 in   Light Drizzle
10:53 AM 37.0 °F 29.3 °F 35.1 °F 93% 29.85 in 1.2 mi SSE 11.5 mph - 0.00 in   Light Drizzle
11:50 AM 35.6 °F 28.6 °F 35.6 °F 100% 29.80 in 2.0 mi SE 9.2 mph - 0.02 in   Light Drizzle
11:53 AM 36.0 °F 29.6 °F 36.0 °F 100% 29.82 in 2.0 mi SE 8.1 mph - 0.02 in   Light Drizzle
12:10 PM 37.4 °F 32.1 °F 35.6 °F 93% 29.79 in 3.0 mi SE 6.9 mph - 0.00 in   Light Drizzle
12:53 PM 37.0 °F 31.6 °F 36.0 °F 96% 29.80 in 4.0 mi SE 6.9 mph - 0.02 in Rain Light Rain
1:53 PM 37.0 °F 31.0 °F 36.0 °F 96% 29.76 in 3.0 mi ESE 8.1 mph - 0.03 in Rain Light Rain
2:05 PM 37.4 °F 31.4 °F 35.6 °F 93% 29.73 in 1.2 mi ESE 8.1 mph - 0.01 in Rain Light Rain
2:15 PM 37.4 °F 32.1 °F 35.6 °F 93% 29.72 in 3.0 mi SE 6.9 mph - 0.02 in Rain Light Rain
2:53 PM 37.0 °F 31.6 °F 36.0 °F 96% 29.75 in 4.0 mi SE 6.9 mph - 0.04 in Rain Light Rain
3:43 PM 37.4 °F 32.8 °F 35.6 °F 93% 29.72 in 2.0 mi SE 5.8 mph - 0.02 in Rain Light Rain
3:53 PM 37.0 °F 33.3 °F 36.0 °F 96% 29.74 in 2.0 mi SE 4.6 mph - 0.03 in Rain Light Rain
4:35 PM 37.4 °F 32.8 °F 35.6 °F 93% 29.70 in 3.0 mi SE 5.8 mph - 0.00 in   Overcast
4:53 PM 37.0 °F 31.6 °F 36.0 °F 96% 29.73 in 4.0 mi SE 6.9 mph - 0.00 in   Overcast
5:30 PM 37.4 °F 32.1 °F 35.6 °F 93% 29.71 in 2.5 mi SE 6.9 mph - 0.01 in Rain Light Rain
5:33 PM 37.4 °F 32.8 °F 35.6 °F 93% 29.70 in 3.0 mi SE 5.8 mph - 0.01 in Rain Light Rain
5:53 PM 37.0 °F 33.3 °F 36.0 °F 96% 29.73 in 7.0 mi SE 4.6 mph - 0.02 in   Overcast
6:53 PM 37.0 °F - 35.1 °F 93% 29.74 in 4.0 mi Calm Calm - 0.00 in   Overcast
7:16 PM 35.6 °F 32.8 °F 35.6 °F 100% 29.73 in 2.5 mi SSE 3.5 mph - N/A   Overcast
7:32 PM 35.6 °F - 35.6 °F 100% 29.73 in 1.2 mi Calm Calm - 0.00 in Rain Light Rain
7:53 PM 37.0 °F - 36.0 °F 96% 29.75 in 1.0 mi Calm Calm - 0.01 in Rain Light Rain
8:26 PM 35.6 °F - 35.6 °F 100% 29.73 in 0.8 mi Calm Calm - 0.00 in   Overcast
8:34 PM 37.4 °F 34.9 °F 35.6 °F 93% 29.73 in 1.5 mi North 3.5 mph - 0.00 in   Overcast
8:48 PM 37.4 °F - 35.6 °F 93% 29.73 in 0.8 mi Calm Calm - 0.00 in   Overcast
8:53 PM 37.0 °F - 36.0 °F 96% 29.76 in 0.5 mi Calm Calm - 0.00 in Fog Fog
9:05 PM 35.6 °F - 35.6 °F 100% 29.75 in 0.5 mi Calm Calm - N/A Fog Fog
9:26 PM 35.6 °F - 35.6 °F 100% 29.75 in 0.2 mi Calm Calm - N/A Fog Fog
9:33 PM 35.6 °F - 35.6 °F 100% 29.76 in 0.5 mi Calm Calm - N/A Fog Fog
9:43 PM 35.6 °F - 35.6 °F 100% 29.76 in 0.2 mi Calm Calm - N/A Fog Fog
9:53 PM 36.0 °F - 36.0 °F 100% 29.78 in 0.5 mi Calm Calm - N/A Fog Fog
10:12 PM 35.6 °F 32.8 °F 35.6 °F 100% 29.76 in 0.5 mi West 3.5 mph - N/A Fog Fog
10:39 PM 35.6 °F 32.8 °F 35.6 °F 100% 29.78 in 1.0 mi WNW 3.5 mph - N/A   Mist
10:53 PM 36.0 °F 32.1 °F 35.1 °F 97% 29.81 in 1.0 mi West 4.6 mph - 0.00 in Rain Light Rain
11:11 PM 35.6 °F - 35.6 °F 100% 29.78 in 0.8 mi Calm Calm - 0.01 in Rain Light Rain
11:27 PM 35.6 °F 30.7 °F 35.6 °F 100% 29.77 in 1.0 mi Variable 5.8 mph - 0.02 in Rain Light Rain
11:36 PM 35.6 °F 31.7 °F 35.6 °F 100% 29.77 in 2.0 mi NW 4.6 mph - 0.03 in Rain Light Rain
11:53 PM 36.0 °F 31.1 °F 35.1 °F 97% 29.81 in 2.5 mi NW 5.8 mph - 0.04 in Rain Light Rain